COSMOS 765

Satellite information

Favourite Embed

Satellite Type and Status

PAYLOADIN ORBIT

Key statistics

Satellite COSMOS 765 at a glance.

Uptime

18356

Days in orbit

Revolutions

≈ 12.4

Per day

Orbit

LEO

Low Earth Orbit

Inclination

74.0

Latest

Satellite identification and parameters

Extended collection of information and parameters for COSMOS 765.

Object identification

Identified? True

Debris? False

Object name: COSMOS 765

International designator: 1975-086E

Object number (NORAD): 8289

Object ID (CCSDS): 8289

Country: COMMONWEALTH OF INDEPENDENT STATES (CIS)

Current information (Y/N): Y

RCS size: MEDIUM

Orbital parameters

Period: 116.29 minutes

Inclination: 74.0108 deg

SMA: 7892.007 km

Apoapsis: 1550.65 km

Periapsis: 1477.094 km

RAAN: 344.5211 deg

Eccentricy: 0.00466015

Argument of periapsis: 303.0747 deg

Mean anomaly: 170.321 deg

Mean motion: 12.38287788 rev/day

Mean motion (dot): -0.00000009 rev/day2

B* drag term: 0.000050333156 1/REarth

Two-line elements (TLE)

Creation date: Dec. 18, 2025, 8:02 p.m.

Reference frame: TEME

Reference center: EARTH

Epoch: Dec. 18, 2025, 10:48 a.m. UTC

TLE line 0: 0 COSMOS 765

TLE line 1: 1 08289U 75086E 25352.45017775 -.00000009 00000-0 50333-4 0 9994

TLE line 2: 2 08289 74.0108 344.5211 0046602 303.0747 170.3210 12.38287788271717

Live tracking on map

Real-time ground track for satellite COSMOS 765.

In-orbit conjunctions

There are no conjunctions computed for COSMOS 765, at the moment. Check back to stay up to date, as we update our databases every day.

Go to all conjunctions

Associated space launch

Military communications satellites

COSMOS 765 was lifted into orbit during the mission ‘Kosmos-3M | Strela-1M 97-104’, on board a Kosmos-3M space rocket.

The launch took place on Sept. 17, 1975, 7:10 a.m. from 132/1 (132L).

For more information about the launch, click the button.

Launch to space Kosmos-3M | Strela-1M 97-104
Kosmos-3M | Strela-1M 97-104

Agency: N/A

Status: Launch Successful

Launch date: Sept. 17, 1975, 7:10 a.m. UTC

Rocket: Kosmos-3M

Launch pad: 132/1 (132L)

Location: Plesetsk Cosmodrome, Russian Federation

...

Latest news about this satellite

There are no fresh news available about this satellite. Check back as we update our databases every day.


Newsletter sign-up

Weekly statistics, charts and insights to help you stay on top of the space industry.